Theta_e
311 311 311 311 311 311 311 310 310 308 308 304 301 303 294 293 290 300 303 305 302 295 288 293 294 291 294 298 298 300 299 298 299 297 298 294 297 296 296 296 295 297 296 296 296 297 295 296 295 297 298 298 301 301 303 303 301 305 304 305 305 322 298 295 296 298 301 304 304 304 306 306 304 304 305 302 298 297 294 290 290 291 291 292 291 292 293
311 311 311 311 311 310 310 310 310 309 308 304 304 298 294 294 293 295 303 305 302 293 285 286 288 291 295 295 295 298 297 296 294 294 296 295 295 294 295 297 298 295 298 296 294 298 291 298 297 296 299 297 304 301 302 303 301 301 304 302 307 300 300 296 290 290 292 297 300 299 303 304 301 301 303 303 303 300 297 297 298 294 292 292 290 289 294
311 311 311 311 310 310 310 309 310 309 309 308 303 295 296 294 296 296 298 303 299 290 293 290 289 290 290 291 290 293 294 297 295 295 294 297 297 296 294 296 297 295 296 295 296 297 295 292 298 298 297 297 302 302 300 303 301 306 314 318 308 302 300 297 291 288 286 286 288 290 294 298 301 302 302 303 302 300 296 294 293 287 292 295 290 290 291
310 310 310 310 310 310 309 309 309 309 308 308 302 297 294 290 284 291 293 296 296 296 297 294 291 289 289 288 289 291 290 294 296 296 295 297 297 296 296 298 297 294 294 292 292 293 297 294 293 295 293 296 299 299 299 302 302 316 317 315 308 301 302 300 298 295 293 294 294 298 302 299 298 300 300 301 302 302 300 296 291 291 290 293 292 296 296
310 310 310 310 310 309 309 309 309 309 308 308 303 300 296 295 287 288 285 293 292 291 293 291 291 287 292 284 290 288 290 292 293 297 291 296 295 295 295 295 293 292 292 290 290 293 292 294 295 293 293 295 296 298 300 301 307 315 309 311 305 300 296 299 300 299 299 300 300 302 303 299 301 300 299 301 301 301 299 295 294 295 292 291 294 297 298
310 310 310 310 310 309 309 308 309 309 309 308 305 294 296 287 291 293 294 287 284 287 288 292 290 292 292 288 292 289 289 290 288 293 295 295 296 291 293 294 295 294 291 292 287 290 290 292 290 293 292 292 294 294 298 299 307 307 301 306 301 297 293 299 300 299 301 302 301 302 302 302 300 301 301 300 301 301 299 298 297 297 295 294 295 299 299
310 310 310 310 309 309 309 309 308 308 308 307 302 292 295 294 292 292 296 288 291 290 290 292 291 290 290 289 290 288 289 288 291 291 291 292 291 293 287 290 293 293 294 292 289 290 286 287 291 291 291 290 291 290 294 300 301 299 299 301 302 299 294 300 301 299 300 301 301 302 301 301 301 300 301 301 301 300 301 300 300 298 297 298 298 298 300
310 310 310 310 309 309 309 308 309 309 307 306 299 297 292 290 290 288 294 293 290 290 291 291 290 287 291 287 288 289 289 288 291 292 291 287 290 294 290 291 292 293 294 293 289 291 292 291 288 293 291 290 292 291 293 293 297 298 297 299 301 298 294 304 299 297 298 301 302 302 302 301 300 300 301 302 301 301 301 302 301 301 299 298 297 298 298
310 310 310 309 309 309 309 309 308 307 307 300 298 297 298 297 299 296 290 287 289 291 290 288 288 286 288 286 288 290 289 289 291 290 294 291 289 291 289 292 292 293 294 293 292 294 294 294 293 294 293 289 294 291 292 296 291 295 295 298 299 300 295 299 297 293 294 300 300 301 302 301 299 298 299 299 300 299 300 299 301 299 297 298 298 296 297
310 310 310 310 309 309 309 308 308 307 306 301 300 294 300 299 302 300 295 286 291 288 290 289 287 283 288 290 290 288 288 291 292 288 293 294 295 294 293 293 292 291 291 291 293 296 297 296 296 296 297 298 297 297 297 297 295 294 295 298 296 298 296 294 294 291 291 299 300 300 300 299 296 297 299 300 299 300 302 303 304 304 303 299 296 296 299
310 310 310 310 310 310 309 309 308 307 305 299 297 296 298 295 294 296 295 286 289 289 287 286 286 288 290 291 290 292 290 291 291 286 287 293 293 296 295 293 291 289 290 293 299 300 300 300 299 299 299 298 298 298 299 299 299 298 296 296 298 299 298 295 298 290 292 297 299 300 296 290 292 302 303 303 301 301 299 298 300 303 304 300 302 303 302
310 310 310 310 310 309 309 308 309 307 306 304 303 299 301 301 298 296 291 285 286 290 287 284 286 288 289 290 290 289 290 290 290 294 289 291 293 296 295 295 294 288 296 300 301 301 301 301 300 299 298 298 297 298 298 298 299 302 302 299 298 298 298 296 296 293 292 297 297 295 289 291 301 305 305 305 305 304 302 303 303 303 303 305 305 307 305
310 310 310 310 309 309 309 309 309 308 307 306 304 298 302 304 298 294 292 288 284 287 285 286 290 290 291 290 289 290 292 293 293 294 294 292 292 294 295 294 293 295 301 299 300 299 294 292 292 292 293 296 297 298 298 297 298 300 301 302 299 297 296 296 296 296 295 294 294 289 290 301 307 306 307 310 303 303 306 306 311 314 308 305 309 311 311
310 310 310 310 310 309 309 309 308 307 308 306 303 302 303 302 297 294 292 288 287 289 290 288 289 288 289 290 291 291 292 292 293 294 291 294 292 292 296 298 298 301 301 301 299 300 292 293 286 288 289 292 293 292 295 299 299 299 300 301 302 299 298 298 295 300 292 292 293 292 301 303 305 305 306 306 303 303 303 301 307 315 315 314 313 314 315
310 310 310 311 311 310 310 309 309 307 307 306 305 303 302 303 302 297 298 293 286 289 290 284 287 289 290 290 290 288 288 290 290 290 294 295 293 296 297 299 301 301 300 298 296 297 291 291 286 284 285 286 283 287 298 296 303 305 305 305 307 305 297 302 297 295 297 293 290 293 293 292 296 303 310 310 309 309 312 310 306 313 317 317 317 315 316
310 310 310 309 309 310 311 311 309 308 307 306 305 303 302 304 304 301 297 293 289 283 288 292 293 291 289 289 290 289 288 289 288 289 289 291 293 296 298 301 301 301 300 300 297 294 292 287 283 284 280 285 291 291 289 297 297 303 306 306 306 306 304 304 300 298 299 295 289 288 289 291 298 306 310 310 311 312 311 309 300 311 318 316 319 318 317
310 310 309 309 309 309 309 309 309 308 308 305 302 301 300 306 303 300 296 295 291 286 294 294 294 293 290 289 291 290 292 287 289 286 286 287 291 294 296 300 300 300 299 297 295 292 289 287 288 288 290 292 288 288 295 294 294 297 303 305 305 304 303 302 298 297 297 295 291 288 293 296 306 310 310 311 312 310 305 294 298 310 317 318 318 317 318
310 310 309 309 310 309 309 309 309 308 308 308 304 301 301 306 305 304 298 294 290 290 293 295 293 289 288 289 289 292 294 292 291 292 289 291 292 292 294 295 294 299 301 293 293 289 287 287 284 285 283 293 294 294 285 293 293 294 296 298 299 300 302 302 298 299 297 296 294 292 299 308 311 312 314 315 315 308 297 289 303 313 318 321 321 320 320
309 310 309 310 310 310 310 309 309 309 308 306 305 303 302 305 306 304 299 295 292 287 294 298 298 294 295 298 294 294 294 293 292 287 287 287 290 297 295 296 297 291 297 292 293 288 286 287 292 290 286 290 294 288 297 291 291 301 300 298 299 299 302 303 303 297 295 296 293 292 298 306 312 314 316 317 310 298 292 306 313 318 319 321 323 323 323
309 309 309 309 310 309 310 310 309 308 308 308 305 299 301 304 306 304 298 293 295 291 294 295 296 293 297 294 292 291 292 292 293 289 288 285 293 295 291 287 296 296 293 295 288 292 288 285 288 292 288 288 292 300 293 293 300 296 299 304 301 299 300 297 298 302 301 298 294 289 286 302 313 313 312 316 304 303 308 317 319 322 320 322 323 325 326
309 309 309 309 309 310 309 309 308 309 308 308 306 302 300 304 305 306 303 299 294 290 292 299 298 297 297 296 297 297 295 291 291 289 291 291 294 291 281 283 289 292 289 291 285 287 289 286 288 289 295 293 295 295 289 292 295 303 303 303 303 307 299 296 300 305 294 295 293 292 303 308 314 312 305 312 315 317 320 318 316 320 321 323 325 326 328
309 310 309 309 309 309 309 309 309 308 309 308 307 301 298 302 304 307 306 303 296 293 294 298 300 298 299 300 300 299 298 297 297 297 292 290 293 292 291 292 292 295 298 298 292 291 293 291 293 289 288 291 296 292 295 289 288 297 304 306 297 307 303 304 294 305 302 299 304 311 312 313 315 314 313 314 319 322 322 321 321 322 324 326 326 325 327
309 309 309 309 309 309 309 309 309 308 309 308 306 301 299 300 301 307 304 298 300 300 301 299 300 301 302 303 305 304 303 303 301 299 298 293 291 292 291 291 291 301 302 302 295 293 292 292 289 293 289 292 292 291 295 294 292 297 295 305 306 310 310 314 308 307 314 313 312 315 315 315 314 316 317 316 317 318 323 326 324 325 326 326 325 326 327
309 309 309 309 308 308 308 309 308 308 308 308 307 300 299 301 302 303 301 300 296 292 296 297 293 290 293 296 301 304 306 304 304 303 305 301 291 290 294 295 297 301 301 302 304 297 296 296 292 295 287 294 296 290 287 289 294 300 299 300 306 309 310 310 305 309 301 295 313 311 313 315 314 313 315 317 317 317 317 314 316 318 321 323 325 326 326
309 309 309 309 309 309 308 308 309 308 308 308 307 306 304 301 302 303 298 292 293 292 286 290 293 297 299 301 302 301 302 304 307 306 304 302 298 293 291 297 302 297 296 300 306 302 299 292 292 292 287 296 298 289 299 293 293 301 294 299 302 303 312 307 306 306 304 304 310 312 316 317 315 314 312 313 315 316 316 315 316 317 318 318 318 319 319
309 309 309 309 309 309 309 309 308 308 308 308 308 300 298 299 301 304 303 301 299 295 288 287 291 302 302 300 298 301 304 304 303 302 303 304 303 301 299 299 299 302 301 305 305 298 297 296 295 293 290 291 303 294 294 299 297 302 297 295 302 305 310 300 307 303 307 310 314 314 315 314 312 313 314 314 315 315 314 315 315 316 316 316 317 317 317
309 309 309 309 309 309 309 308 308 308 308 308 306 303 301 302 303 302 300 299 293 289 291 288 292 296 299 296 300 302 303 302 302 302 301 302 302 302 301 298 297 297 296 299 301 298 297 296 294 290 294 294 300 297 299 297 298 296 296 303 308 305 300 308 306 299 299 303 308 313 304 303 308 311 313 314 315 316 313 313 313 314 314 315 316 316 316
310 309 309 309 309 309 308 308 308 308 308 308 306 304 303 301 303 304 304 303 296 289 290 290 290 293 299 296 301 302 303 303 302 301 300 300 300 300 299 298 297 295 295 294 291 293 294 292 290 297 299 300 298 296 304 303 303 299 299 300 307 301 303 304 300 300 300 311 314 315 313 310 311 312 314 315 316 317 316 312 313 313 313 314 315 314 314
310 309 309 309 309 309 308 308 308 308 308 307 303 302 301 302 304 305 306 307 304 297 294 294 297 294 288 293 300 299 301 302 301 301 300 300 300 299 298 298 296 296 296 296 294 295 295 296 299 296 296 306 299 295 299 293 294 291 297 304 308 308 314 312 310 311 312 315 315 316 313 309 310 313 314 315 317 318 317 318 316 313 314 313 312 312 313
310 310 310 309 309 309 309 308 308 308 308 303 300 296 292 297 303 304 308 307 304 301 292 289 286 289 297 297 296 299 300 302 303 303 302 300 299 298 298 297 297 299 297 295 294 291 296 297 300 303 305 308 298 298 296 295 293 295 304 308 309 311 313 313 315 312 310 318 317 316 314 314 316 315 314 315 317 318 315 316 318 316 313 314 312 312 312
310 310 310 310 310 309 309 309 308 308 308 301 298 291 287 286 296 307 308 308 306 301 295 293 289 294 293 298 298 297 300 302 301 301 302 302 300 298 299 299 298 299 294 294 295 294 299 295 298 301 307 306 301 297 295 293 291 295 304 307 308 309 310 311 313 316 318 318 318 318 317 315 315 317 313 315 316 316 315 314 316 319 317 314 312 311 311
311 310 310 310 310 310 309 309 309 309 305 302 296 293 293 294 301 306 307 307 305 298 292 288 288 289 289 294 298 302 301 302 303 303 302 304 299 300 298 298 296 299 298 294 296 295 295 298 298 298 297 304 301 298 297 294 292 293 303 307 309 309 310 310 310 313 319 320 316 311 311 312 314 313 311 316 316 317 316 316 317 315 316 314 312 312 312
311 310 310 309 310 310 310 309 309 308 305 306 307 307 306 306 306 306 307 305 301 296 297 291 286 290 288 291 298 300 303 302 301 300 299 303 299 300 297 298 298 298 306 301 293 293 300 299 301 297 301 304 299 298 296 294 296 302 306 308 308 309 308 310 312 314 315 317 318 311 308 310 312 314 315 316 316 316 316 316 317 316 313 311 310 311 311
310 310 309 309 310 310 309 309 309 309 308 305 300 301 305 307 306 306 306 304 299 300 299 292 288 288 288 298 292 298 305 297 296 299 293 303 306 301 293 295 296 294 300 295 300 300 303 301 297 298 302 301 303 297 292 297 304 305 308 308 307 308 309 311 312 312 315 316 317 315 314 314 315 316 315 315 314 315 316 314 316 314 313 313 312 312 311
309 308 309 309 309 310 310 309 307 305 301 302 302 305 307 309 308 308 307 302 294 292 293 294 293 287 288 291 289 294 304 300 296 299 295 299 307 300 300 296 296 292 300 304 298 301 300 300 305 297 294 302 298 293 296 301 304 305 304 304 306 308 309 307 309 313 313 314 315 316 317 317 316 313 313 313 313 313 312 311 312 313 312 312 314 315 314
309 309 309 310 310 309 307 308 305 303 300 300 301 311 312 312 311 308 307 305 300 294 293 292 294 288 289 284 286 296 304 299 302 301 300 301 300 305 304 300 293 299 304 300 298 301 297 305 301 293 300 295 294 299 301 304 304 306 304 304 305 307 306 307 309 312 312 313 313 313 313 314 314 314 313 314 314 312 311 311 310 311 311 311 312 313 315
309 309 310 310 307 306 301 302 306 304 302 307 312 313 311 310 310 310 306 304 306 305 296 293 289 289 292 290 295 299 302 292 301 297 298 297 296 303 303 298 294 301 301 297 297 296 301 308 299 293 294 292 297 305 306 307 306 307 307 308 309 311 311 312 314 314 312 312 312 312 312 312 312 312 313 314 315 314 311 308 308 309 309 310 311 312 312
309 310 306 304 302 298 297 301 303 308 313 312 312 307 304 304 297 300 300 297 302 302 297 296 289 290 298 294 288 300 299 296 302 295 297 302 298 297 303 299 298 299 290 293 298 307 303 300 294 292 295 301 304 307 308 309 309 310 311 310 309 309 310 311 312 312 310 308 308 309 311 311 310 311 312 312 313 312 312 313 313 312 311 312 312 313 313
308 308 306 305 300 297 297 301 311 314 309 310 308 300 298 301 297 293 294 298 299 294 298 294 290 295 294 292 293 302 299 296 295 298 292 300 297 292 301 291 298 298 289 292 297 307 292 292 295 294 291 298 302 304 309 310 312 312 313 314 314 313 313 312 312 310 309 308 309 310 311 309 309 310 312 313 313 315 314 314 315 315 315 314 314 314 314
304 301 300 300 299 301 307 309 314 308 307 301 302 299 293 299 292 288 298 291 290 296 298 289 298 298 298 293 293 294 305 299 293 293 296 299 309 294 298 296 297 294 286 286 293 305 292 285 291 290 290 299 301 306 308 310 311 311 312 313 314 314 315 315 314 315 314 313 314 314 313 314 315 313 313 314 314 314 315 315 315 315 315 317 319 317 315
302 301 300 299 301 304 306 307 307 304 301 298 298 298 295 289 296 298 296 291 290 291 302 299 300 296 300 301 300 293 307 309 306 306 302 296 306 304 295 289 300 291 287 286 299 301 295 290 288 289 294 301 303 307 309 310 311 313 314 314 314 313 314 316 316 317 316 315 315 314 315 316 315 315 316 315 314 314 315 315 315 315 315 315 315 316 316
303 301 301 304 304 304 305 306 303 300 300 300 293 287 290 293 298 295 296 287 290 298 299 300 295 298 299 303 301 302 303 311 307 304 300 294 302 298 294 295 297 289 286 295 302 299 295 286 287 290 299 303 306 308 309 308 311 312 313 314 315 314 315 315 315 316 317 314 314 314 314 314 314 314 314 315 315 315 315 315 315 316 315 316 317 318 318
307 307 306 302 303 302 304 291 299 300 287 288 288 285 291 288 291 289 292 299 306 299 300 308 305 308 308 309 304 307 305 309 302 301 298 295 303 302 295 291 292 286 292 304 297 291 288 286 287 295 301 304 306 307 308 310 311 312 313 315 316 316 316 313 313 315 317 316 316 315 315 315 314 315 316 316 316 316 316 318 317 315 316 316 316 317 317
306 308 302 300 294 297 300 284 296 296 289 289 287 284 288 287 291 295 292 294 300 299 303 298 300 300 295 306 302 303 305 306 307 303 300 303 299 295 293 287 288 297 304 296 293 287 289 293 297 300 303 306 307 307 308 309 310 310 311 313 314 314 315 314 314 313 314 315 314 314 314 314 314 315 316 316 316 315 315 316 317 317 317 316 316 317 318
301 295 290 289 287 291 290 286 293 288 285 288 290 289 291 288 291 293 292 299 299 297 303 303 301 301 300 305 306 306 305 300 308 300 296 300 296 297 294 291 300 300 293 287 289 291 294 294 300 303 304 305 307 308 310 310 309 309 309 310 311 312 313 313 313 313 313 314 314 314 313 313 313 313 314 315 316 316 315 314 315 315 315 316 316 316 317
299 294 289 286 286 289 288 287 289 287 292 294 293 294 293 295 296 295 300 302 299 300 300 302 302 303 301 306 301 299 304 303 298 300 300 299 294 290 299 304 302 291 289 289 287 288 292 296 301 303 306 307 308 309 310 311 312 314 311 308 309 310 311 312 312 312 313 313 314 313 313 313 313 313 312 313 314 314 314 314 315 315 315 315 315 315 316
295 299 291 289 286 289 297 289 290 293 295 294 297 298 299 300 302 303 303 302 300 303 303 304 303 303 299 301 302 303 304 303 298 300 303 294 293 296 302 296 287 289 286 286 287 291 295 299 302 304 306 308 309 310 310 310 311 310 310 311 311 312 313 313 313 312 312 312 312 312 312 311 312 312 313 312 313 314 316 315 315 316 316 315 316 316 316
292 297 292 286 286 288 290 294 297 297 300 299 300 302 303 304 303 301 304 305 305 306 303 302 301 301 299 304 304 299 300 301 298 297 301 296 297 292 289 290 288 291 293 291 292 297 299 301 304 305 307 309 309 309 309 309 310 311 311 312 312 312 312 312 311 311 312 311 311 311 311 311 312 312 312 312 312 313 314 315 315 314 314 314 316 316 316
302 293 288 287 293 295 296 297 297 293 299 301 302 303 303 302 302 304 307 307 304 304 304 302 301 300 294 299 298 297 293 298 292 290 297 295 290 288 288 285 287 286 294 297 297 299 300 304 306 307 308 309 309 309 309 310 310 309 310 309 309 309 310 310 311 312 312 312 312 311 311 312 311 311 311 311 310 311 313 314 314 313 314 314 313 314 315
291 291 296 290 294 296 299 300 298 295 299 300 301 301 304 304 303 305 308 305 305 304 303 303 304 295 294 296 288 291 291 296 296 293 293 290 292 294 291 286 288 290 293 299 300 302 305 306 307 307 307 308 310 309 309 310 312 310 309 310 310 310 310 310 310 310 310 310 310 310 310 310 309 309 309 309 309 310 311 311 312 312 312 312 312 311 312
295 291 293 300 296 295 297 294 294 294 296 298 300 301 303 302 303 304 308 306 303 302 300 295 294 291 288 290 289 288 290 300 296 292 291 291 296 293 288 287 292 296 298 302 304 305 306 307 307 307 308 308 308 309 310 311 311 311 311 311 310 310 310 310 309 310 310 310 310 314 309 308 309 309 310 310 310 309 309 310 310 310 311 312 312 311 311
289 290 294 298 300 300 300 298 299 298 299 301 301 303 305 303 305 307 310 307 303 299 297 299 294 289 288 289 293 298 300 295 291 294 290 294 298 292 292 295 297 300 302 303 304 306 307 308 308 309 308 309 311 310 311 312 311 311 312 312 312 311 309 309 309 309 309 309 309 309 309 309 310 310 310 309 309 309 307 307 309 310 310 309 309 309 309
Wind_Speed
19 19 19 18 18 16 15 14 13 10 11 6 7 5 5 4 10 18 18 15 8 6 3 4 3 4 5 9 10 8 10 10 8 9 6 9 7 8 8 8 9 5 4 8 9 12 11 11 12 12 12 14 11 11 18 18 18 12 11 17 13 11 7 8 11 6 10 12 6 5 8 15 15 15 13 11 12 10 9 7 5 5 3 6 2 7 8
20 19 18 18 17 15 15 14 12 9 7 3 5 5 5 7 10 11 2 8 6 2 2 4 7 6 8 8 10 9 10 9 7 6 10 7 5 7 7 8 4 3 4 5 5 7 5 7 12 6 9 8 16 14 20 24 10 10 9 9 1 10 7 9 6 5 6 11 10 8 3 5 8 10 14 16 15 13 6 3 2 6 6 5 7 18 0
19 19 18 17 15 15 15 13 12 11 7 5 3 3 4 7 6 9 8 6 3 2 3 5 5 8 9 9 8 9 7 6 7 6 9 10 5 7 5 7 9 5 7 5 7 6 5 6 4 10 7 9 12 9 28 15 11 8 17 14 11 13 10 11 11 13 13 12 15 14 11 13 9 7 13 16 18 16 7 10 4 7 4 6 5 4 4
20 19 18 16 16 15 13 12 12 12 7 5 2 2 4 3 8 7 5 3 5 1 8 5 10 8 11 11 8 9 9 10 9 10 9 6 8 6 8 7 4 4 9 7 8 7 6 6 7 6 9 12 8 13 17 15 10 25 20 20 10 3 6 12 16 16 15 13 5 4 7 5 12 9 11 16 18 18 15 7 6 13 3 6 8 4 1
20 19 18 16 16 14 13 12 11 10 6 4 3 2 2 3 3 6 8 8 1 7 5 8 10 8 10 4 5 8 9 8 10 6 4 4 9 10 6 6 9 6 7 5 6 4 13 12 7 5 12 10 10 16 9 14 13 29 16 22 8 3 4 9 15 20 18 16 14 10 8 10 13 13 12 15 18 17 17 13 12 7 6 14 5 5 7
20 20 19 18 16 13 12 11 10 9 6 2 2 3 2 3 3 4 3 5 9 11 8 9 10 9 9 6 8 9 10 8 7 9 6 12 9 7 3 5 5 7 6 8 4 8 10 8 8 13 6 14 16 16 14 9 16 23 14 13 5 3 4 8 9 18 20 18 17 18 12 8 9 16 15 17 18 20 20 16 8 12 11 16 6 8 8
21 21 21 19 16 14 11 9 9 7 5 2 0 3 4 3 3 5 7 5 5 6 11 15 11 11 8 6 8 9 9 8 7 4 7 8 7 10 9 11 7 9 8 6 4 5 9 7 7 5 12 11 15 13 14 4 14 16 16 14 6 5 5 3 13 13 19 20 19 17 19 12 7 10 13 13 19 21 22 18 14 14 9 8 9 9 11
22 22 21 20 16 14 12 9 7 7 2 2 3 4 4 4 1 2 4 3 8 8 7 7 10 8 9 5 7 8 8 8 8 6 5 8 10 7 7 11 12 8 5 5 7 7 6 8 11 8 8 12 4 9 5 14 10 13 12 12 7 7 7 11 14 9 13 20 19 18 19 15 11 9 11 15 15 16 20 19 16 13 11 5 7 9 12
23 22 21 19 16 13 12 9 7 3 2 2 4 4 5 3 1 2 5 6 5 5 5 5 6 7 5 2 5 7 7 9 10 10 7 8 10 8 10 12 9 6 6 7 10 11 9 7 10 9 9 10 5 6 5 7 17 15 12 7 9 7 6 8 5 8 7 13 21 22 18 17 14 10 10 9 12 15 14 15 10 8 7 7 6 6 8
22 20 18 18 15 13 12 10 7 1 5 3 2 6 1 1 1 2 2 4 5 7 7 6 6 4 3 2 5 2 10 13 11 9 6 5 4 9 11 11 11 7 8 9 13 13 10 13 12 8 9 10 10 11 14 11 13 11 9 9 11 3 6 8 8 9 6 11 17 20 19 14 14 18 17 9 6 6 8 10 12 14 12 9 9 10 7
21 19 17 15 15 14 14 9 6 1 4 4 4 4 2 2 1 2 2 4 4 5 5 6 5 5 10 9 9 4 9 12 12 1 4 8 9 8 8 8 8 8 9 11 10 10 13 12 12 10 12 15 14 12 13 14 16 15 13 8 8 9 8 8 1 3 7 17 13 15 13 15 16 6 7 13 11 10 6 4 7 9 10 7 11 12 10
20 19 17 15 15 15 13 11 8 1 7 5 4 5 3 1 3 3 3 4 7 4 3 6 7 9 11 12 10 12 13 12 12 8 10 8 10 10 8 8 5 7 3 5 8 11 13 12 14 13 13 17 19 16 18 18 17 15 14 14 13 13 10 9 3 3 7 12 8 14 16 15 3 3 5 11 13 11 10 3 0 4 5 4 3 2 1
20 19 17 16 16 15 14 13 8 5 6 5 4 6 4 3 2 2 3 3 6 4 5 6 8 12 13 15 13 10 12 13 12 10 10 9 10 10 8 7 6 6 10 10 10 13 10 8 10 10 15 14 15 14 17 17 18 18 17 17 15 12 10 7 4 4 5 6 4 11 10 4 3 3 3 2 5 7 12 6 3 3 2 5 4 5 4
20 19 18 17 17 16 15 13 10 7 1 4 4 5 4 2 4 3 3 2 5 5 4 9 10 10 10 9 8 12 12 12 9 8 9 8 9 12 10 7 7 9 9 6 5 4 5 3 6 7 7 7 7 9 10 14 17 18 21 21 17 16 11 7 8 4 6 4 7 4 2 1 3 2 2 1 3 9 11 6 2 3 3 3 7 2 5
19 19 18 17 15 14 13 12 10 6 4 4 3 4 4 5 5 3 2 3 6 7 4 6 5 6 10 10 8 9 9 5 7 6 8 9 8 6 10 10 9 10 11 5 1 1 3 1 3 4 6 5 4 5 2 5 3 10 11 8 9 9 11 5 6 4 1 4 4 2 5 7 4 2 1 3 5 7 11 11 1 4 4 1 7 5 3
19 18 18 17 17 16 14 11 10 6 4 1 4 4 5 4 4 3 3 3 2 7 5 10 8 6 7 9 9 10 7 5 5 6 8 4 7 10 8 7 9 10 6 1 1 0 1 2 5 3 4 2 5 6 2 2 2 5 4 7 11 6 5 6 7 4 3 3 4 4 4 4 5 2 5 6 7 13 8 10 1 3 1 2 5 6 4
18 18 17 17 16 15 14 13 11 7 2 6 3 3 3 4 3 4 4 3 4 8 5 10 10 9 8 7 7 4 1 4 5 5 6 6 6 9 9 7 8 5 5 1 2 1 1 3 2 3 4 4 4 4 6 3 3 5 8 5 8 6 3 4 5 5 3 7 6 4 2 4 10 14 9 3 8 8 6 7 3 2 4 1 4 8 5
18 17 17 17 16 16 16 14 11 9 4 4 4 2 2 2 6 3 3 3 5 7 5 10 8 5 5 3 7 7 6 5 4 3 6 7 7 7 5 7 7 3 5 2 0 2 4 5 5 5 6 5 5 6 5 4 1 2 4 5 4 4 3 6 2 3 7 8 8 4 2 4 15 15 19 17 2 7 4 6 8 3 1 1 5 6 4
17 17 17 16 16 15 14 13 14 11 7 2 3 3 4 5 5 5 3 4 4 7 2 3 5 10 10 8 10 9 7 8 8 6 6 7 3 2 7 4 3 3 5 2 1 2 2 4 2 2 3 3 4 4 1 2 4 3 5 2 2 2 2 3 4 4 4 7 9 7 2 4 14 22 20 11 2 8 5 5 3 6 4 3 4 7 4
18 17 17 16 15 16 15 14 11 12 11 4 2 3 4 3 4 7 6 6 4 10 7 8 8 13 8 8 7 7 7 7 3 3 3 7 3 9 6 3 2 3 1 3 2 2 2 4 4 2 4 4 3 3 3 4 3 3 3 1 0 2 3 4 4 2 2 2 7 4 1 6 19 23 13 9 3 2 5 6 2 2 5 6 5 5 3
18 17 17 16 15 15 15 15 14 12 10 7 1 3 4 3 5 5 8 7 5 9 7 6 10 11 10 11 11 11 9 10 7 6 5 7 4 3 3 2 3 3 3 1 2 2 3 4 3 3 3 2 1 1 3 2 2 2 5 1 2 3 2 2 2 2 2 1 2 1 4 11 14 11 4 11 5 2 5 8 7 1 3 5 6 8 5
17 17 17 16 15 15 13 13 12 12 10 10 6 2 5 3 2 1 3 5 6 8 7 7 8 12 15 15 15 15 16 16 16 11 8 8 3 6 5 6 7 3 1 1 1 2 1 2 4 3 3 4 1 5 3 2 1 2 5 2 1 5 1 2 4 2 3 2 3 6 7 9 8 9 7 9 14 7 2 8 6 7 5 3 9 7 6
17 16 16 16 15 15 14 13 12 12 10 8 4 1 5 6 4 2 4 6 6 7 7 9 9 11 11 15 17 16 15 14 15 12 11 8 8 6 7 6 8 2 1 1 3 3 4 3 4 3 6 4 5 4 3 5 2 1 2 4 3 2 4 3 2 2 3 4 7 7 7 9 13 10 8 12 13 16 13 7 10 6 5 6 9 6 7
18 18 17 16 16 15 14 13 12 11 11 10 5 2 4 4 5 3 4 5 5 7 7 7 3 4 5 8 9 7 10 11 13 15 11 9 9 7 5 7 4 1 2 5 5 2 1 2 4 2 6 4 6 4 2 4 3 4 1 1 3 2 4 2 2 2 2 1 1 6 8 10 9 11 13 14 13 12 13 13 10 7 8 9 8 8 9
18 18 18 17 17 16 15 14 13 13 11 11 8 4 4 4 3 3 4 5 3 3 8 6 9 12 15 15 12 12 10 8 7 11 12 11 13 10 10 7 5 6 7 6 2 2 0 2 2 2 6 3 3 4 2 1 3 1 1 2 1 2 1 0 1 0 2 1 3 9 5 5 6 9 11 14 15 13 11 10 8 7 10 11 9 9 11
20 19 19 18 17 17 16 15 14 13 12 12 11 4 3 6 3 2 4 6 5 3 6 7 6 0 5 10 11 9 11 13 15 14 10 13 15 15 14 7 5 3 3 2 4 5 3 2 2 5 6 5 3 4 3 1 4 6 3 5 4 0 1 1 1 1 3 2 2 8 7 2 9 11 11 11 11 11 11 11 10 9 11 13 15 13 10
17 18 19 18 18 18 17 15 14 14 12 10 6 4 6 7 6 6 6 5 5 5 5 6 7 9 6 13 16 13 11 11 10 11 12 11 12 12 12 10 9 7 8 5 4 4 1 2 4 7 5 6 5 8 7 5 4 2 1 4 1 1 0 1 3 3 3 3 2 6 3 3 9 11 11 12 13 13 11 9 12 11 10 11 16 13 10
19 20 20 19 19 18 17 16 15 14 11 11 8 6 7 7 7 8 8 7 7 5 5 8 9 11 10 16 12 9 11 10 8 9 10 11 13 12 12 11 8 6 5 5 4 4 3 4 8 5 6 5 6 4 4 4 4 3 4 5 2 3 2 2 2 4 3 2 1 2 1 1 3 6 9 9 10 11 12 11 9 11 10 8 9 12 14
22 22 21 20 19 18 17 16 16 14 13 9 5 8 9 9 9 8 9 7 6 3 4 8 9 7 6 8 12 13 11 8 9 8 7 11 14 13 12 11 10 9 8 7 7 5 4 4 3 4 5 1 3 6 4 2 2 3 2 1 1 2 1 1 2 1 2 2 3 3 3 1 3 6 7 8 7 9 8 9 11 8 8 6 10 10 11
23 23 21 20 18 17 16 16 15 15 11 3 3 2 4 3 0 1 6 7 6 3 3 5 8 5 4 6 10 10 11 10 8 7 9 6 9 10 10 10 10 9 7 6 5 6 2 2 2 3 2 1 2 3 3 2 2 1 1 2 1 0 1 1 0 3 3 0 3 3 7 1 1 2 5 7 8 8 6 6 7 7 6 6 10 9 8
23 22 20 17 15 16 16 15 14 12 9 2 1 2 1 2 1 2 6 6 6 2 3 3 8 7 9 5 7 11 10 9 9 8 9 7 4 7 7 9 8 8 7 5 3 4 2 3 2 3 3 0 2 3 3 4 3 3 0 3 2 2 1 0 2 2 3 3 4 3 5 2 2 2 9 9 9 7 6 6 5 5 3 6 10 9 8
22 20 17 16 16 17 17 16 14 10 5 5 5 5 5 3 1 1 2 4 1 2 3 5 6 3 4 6 4 6 10 11 8 4 3 4 5 4 4 7 6 9 7 6 2 1 2 3 4 5 4 1 1 4 3 3 5 5 3 4 3 2 2 2 3 4 4 5 6 8 6 4 4 2 3 3 5 6 4 8 8 9 4 6 7 9 9
21 18 17 16 16 17 16 14 12 9 6 7 12 16 19 22 20 16 9 5 1 3 2 3 5 4 3 4 8 10 5 5 3 3 3 1 1 2 5 4 3 4 6 3 0 3 0 1 1 3 2 2 2 2 3 4 4 2 4 2 3 3 3 3 3 3 4 3 2 4 5 3 2 2 3 3 3 3 4 7 3 7 3 9 11 10 11
20 18 16 15 14 14 14 12 10 9 9 7 8 8 9 17 16 20 10 3 3 2 3 3 3 4 6 4 4 4 2 3 2 3 3 3 1 0 2 3 3 2 2 3 1 1 0 1 1 2 1 3 3 2 3 3 2 3 3 3 2 3 4 4 2 3 4 3 5 9 9 8 3 3 5 5 6 5 5 3 1 3 8 8 9 8 7
21 20 17 15 14 12 13 11 5 5 5 5 6 7 6 11 13 9 8 6 3 3 3 3 3 5 4 2 2 6 3 3 3 1 1 4 2 1 4 3 2 2 1 2 2 2 1 1 0 2 3 1 3 3 3 3 3 2 2 3 5 3 4 6 6 3 5 7 9 8 7 6 5 4 4 6 6 4 4 4 3 3 7 7 6 7 7
22 20 17 15 12 8 2 2 3 4 3 4 6 5 7 3 4 3 7 6 3 2 2 3 2 4 3 4 5 2 3 2 1 2 1 2 3 1 1 2 3 1 2 1 1 1 2 1 0 3 3 3 4 2 2 5 3 2 2 2 2 3 1 2 3 6 7 9 12 12 12 9 5 5 6 5 2 1 1 2 3 5 6 5 6 6 7
22 20 15 8 1 3 0 3 2 4 5 3 2 6 6 4 1 1 1 1 1 1 3 2 4 5 3 4 2 3 3 4 1 1 1 2 1 1 2 3 1 1 2 2 2 3 1 1 2 4 3 3 4 2 2 3 1 3 4 3 3 3 8 8 6 8 8 10 12 10 11 9 7 7 6 3 2 1 1 2 4 5 6 4 4 6 4
22 13 2 2 1 1 1 0 2 5 5 8 7 1 0 1 2 2 2 3 3 5 4 3 6 2 1 3 6 3 3 3 2 2 1 0 1 1 1 1 1 1 2 2 2 1 2 1 3 4 4 5 6 2 0 2 3 4 4 3 4 6 7 8 8 6 9 12 11 9 10 10 8 6 5 5 3 1 2 2 1 1 2 3 3 3 3
11 4 2 0 0 1 1 4 4 8 2 2 1 1 1 1 1 1 2 1 1 3 3 4 5 4 5 6 7 4 4 4 4 1 2 0 0 1 2 2 2 2 1 2 2 1 2 2 3 3 4 6 3 4 3 2 4 5 5 5 5 7 7 9 9 10 11 9 8 6 6 8 8 6 4 5 5 5 3 1 2 2 2 2 2 2 2
3 5 4 4 1 4 7 4 5 6 2 1 1 1 2 1 1 3 1 1 2 2 2 5 3 4 8 9 6 4 3 4 3 2 2 1 1 0 1 1 1 2 2 2 3 2 1 0 1 2 4 4 4 4 4 4 5 5 5 6 7 7 6 4 5 6 7 7 5 7 7 5 6 6 4 2 3 5 7 7 6 4 2 0 0 0 0
2 1 2 2 4 5 5 6 4 2 1 1 1 2 1 2 2 2 1 2 2 2 3 3 1 3 3 5 4 6 2 2 3 1 1 2 1 1 2 0 1 3 1 1 1 1 2 1 2 1 2 1 3 4 5 5 4 3 5 5 5 5 5 3 2 2 1 2 3 5 5 5 3 2 3 5 5 6 6 7 7 7 7 7 6 4 1
2 1 3 4 6 6 5 2 0 1 1 2 0 2 1 3 1 1 1 1 2 1 2 3 4 3 4 3 4 3 3 2 1 1 1 2 2 1 1 2 1 1 1 1 2 1 1 2 2 2 4 5 5 5 5 6 6 6 7 6 5 5 6 4 5 4 2 2 3 3 5 5 5 6 6 6 6 6 7 8 9 8 7 5 6 6 6
11 7 3 2 3 2 1 2 2 1 1 2 2 3 1 2 1 2 3 1 1 0 3 1 4 2 4 1 3 4 2 1 1 2 1 2 1 0 1 1 0 2 2 0 2 2 3 2 1 3 3 6 7 8 8 7 6 6 5 4 3 3 4 5 4 5 6 5 4 5 5 6 9 8 7 6 7 8 6 5 5 5 6 6 6 6 6
2 1 0 1 1 3 1 4 2 1 1 1 2 4 4 5 5 3 5 5 2 3 2 3 5 4 4 1 1 1 2 2 2 1 2 1 1 3 2 1 1 3 1 1 2 4 1 0 5 7 9 10 9 10 9 9 7 7 8 8 8 9 6 5 12 12 9 10 10 6 7 7 8 6 4 5 7 7 6 6 5 6 6 7 8 7 6
2 2 2 2 1 3 2 2 1 3 3 4 2 3 3 6 7 6 4 3 2 8 8 3 3 3 5 2 1 1 0 2 0 0 2 0 1 2 2 1 1 1 2 3 3 1 1 7 6 8 10 11 10 8 6 5 4 6 8 10 11 10 11 11 9 7 7 7 8 9 10 8 8 8 7 6 5 5 6 6 4 5 6 7 8 8 6
1 1 2 3 5 3 2 0 2 5 2 0 2 5 7 8 6 6 6 3 6 8 8 7 3 5 3 1 1 2 1 1 2 1 0 1 1 4 2 1 1 3 4 3 5 9 13 12 11 9 9 10 9 7 7 8 7 5 7 10 9 10 10 9 11 10 4 2 6 7 8 7 7 7 7 6 6 6 6 5 5 5 5 6 7 6 5
1 1 1 1 0 2 0 2 4 1 3 4 7 7 7 9 8 7 5 3 7 7 8 7 5 2 1 2 1 1 1 0 1 2 1 4 3 1 1 3 5 4 4 5 5 6 7 9 10 12 10 9 9 9 10 10 8 8 8 8 8 6 4 1 5 5 4 7 8 8 7 7 6 6 6 7 6 6 5 6 6 6 5 6 5 5 5
0 1 1 2 2 1 6 2 2 4 5 5 8 8 7 5 5 8 8 3 5 6 6 6 5 5 3 0 1 2 2 2 2 3 2 1 0 2 2 3 4 3 2 2 7 8 9 8 8 8 9 9 8 9 8 6 6 3 2 1 3 4 3 4 4 4 6 7 7 6 6 6 7 6 6 6 6 6 5 5 5 5 5 5 5 5 5
1 0 0 1 1 0 3 3 4 6 8 7 6 6 6 8 9 9 8 6 6 7 4 0 2 1 3 3 2 3 5 5 4 3 3 3 3 4 4 4 6 7 8 7 6 7 7 7 6 7 8 10 9 9 9 10 10 9 8 7 5 5 7 9 9 9 8 8 8 8 7 7 7 8 8 8 8 8 6 6 6 5 4 5 5 6 6
1 2 1 1 4 3 4 3 2 8 9 9 9 9 9 8 9 10 8 6 7 4 3 1 0 3 2 2 2 3 3 4 4 3 5 8 6 4 3 5 6 6 7 9 9 9 7 6 6 9 9 10 11 10 10 11 11 11 11 11 11 11 11 12 12 12 12 11 12 12 11 10 9 8 8 7 6 7 10 9 8 9 9 8 9 9 10
1 1 2 1 3 6 7 9 9 7 9 10 9 10 10 10 9 10 10 6 6 6 7 5 3 3 3 3 2 3 3 3 2 7 5 5 3 4 4 8 6 6 7 6 7 7 7 7 7 8 10 9 8 11 10 9 10 10 10 10 10 11 11 12 12 13 12 12 12 12 12 9 8 9 9 9 11 11 12 12 11 11 11 10 9 10 10
1 4 5 7 7 8 7 5 3 3 4 7 8 9 8 10 10 8 9 7 9 12 9 5 3 3 3 6 4 2 1 2 3 3 7 6 3 4 5 5 6 5 6 7 7 6 6 6 7 8 7 7 8 6 6 6 7 7 7 7 9 11 12 11 12 12 12 12 12 11 10 10 10 10 11 13 12 11 10 9 9 10 10 9 9 10 10
Wind_Direction
329 328 329 329 329 329 328 329 326 332 349 346 348 326 308 294 269 275 302 295 316 336 313 283 299 256 276 318 300 290 278 273 273 288 298 301 293 287 264 267 278 279 12 341 349 338 302 271 256 281 285 281 294 22 15 2 356 302 217 202 200 187 198 208 233 248 257 253 236 290 238 204 203 207 199 186 204 197 198 174 187 179 235 215 229 234 250
325 326 325 325 326 325 326 325 324 332 9 351 328 333 308 301 291 308 95 301 284 17 282 330 318 307 312 298 305 313 298 289 305 315 338 325 318 311 308 335 4 291 28 312 340 2 299 30 13 318 344 294 17 1 18 357 346 356 360 329 179 209 213 189 189 226 241 252 269 256 243 230 218 205 201 200 199 189 186 162 144 226 209 172 161 239 293
322 322 322 322 323 325 326 327 329 330 346 15 345 321 304 290 258 241 289 307 328 261 329 333 321 337 350 344 344 332 331 346 351 336 312 317 287 322 325 330 319 353 9 334 355 10 1 302 330 340 316 304 341 358 357 342 325 347 332 339 325 260 199 181 194 204 206 208 217 217 205 212 219 215 200 202 200 192 137 210 166 219 244 158 212 270 252
321 321 320 320 322 325 327 330 328 330 339 351 334 272 320 316 316 305 304 330 305 229 1 18 11 351 349 350 333 336 330 327 327 329 300 254 296 287 315 298 349 0 5 359 350 336 329 325 306 342 328 329 340 359 333 336 314 352 351 349 332 289 260 203 202 202 211 218 217 229 157 165 213 209 196 202 202 197 195 181 176 217 158 214 229 169 275
322 320 320 320 322 324 322 321 319 318 320 321 293 274 227 297 272 309 324 329 147 353 2 7 1 343 319 312 297 325 318 315 312 340 316 330 328 322 300 327 340 332 16 8 318 347 319 320 302 334 323 317 291 321 319 327 348 359 352 347 326 343 321 281 231 211 210 201 201 211 167 190 200 206 204 198 201 200 197 191 220 126 130 240 216 183 205
321 320 319 320 322 321 315 312 310 310 299 313 315 296 251 268 262 308 324 315 308 340 341 353 324 313 330 284 301 307 315 326 330 333 328 341 331 316 284 297 307 11 11 351 335 332 328 306 317 334 341 324 336 332 352 306 12 1 346 339 341 309 265 295 284 238 216 205 205 211 213 190 193 207 197 195 199 200 204 211 184 149 196 227 210 196 200
319 317 318 319 321 320 316 309 306 306 300 159 195 267 260 251 285 282 298 297 314 323 300 308 310 317 328 308 308 306 310 327 328 327 318 341 336 338 319 316 7 349 351 356 302 353 336 310 330 344 326 345 333 327 337 136 16 355 341 338 323 312 244 279 334 289 228 210 208 209 216 209 197 200 209 199 194 202 207 210 195 179 206 201 182 198 216
318 317 317 316 318 314 313 305 292 293 273 171 248 221 255 261 274 284 351 267 289 284 285 310 317 303 317 329 289 295 314 310 327 342 344 326 310 307 318 334 336 334 355 347 308 304 272 281 304 319 330 319 348 308 257 307 329 351 332 327 323 2 279 337 332 312 245 214 209 208 215 212 206 208 208 204 200 204 209 210 207 199 222 205 192 207 235
319 316 314 314 314 313 308 306 287 298 114 249 218 260 199 267 8 311 317 310 273 304 308 301 298 302 301 238 295 333 324 320 322 307 299 272 275 316 326 317 324 326 313 308 285 277 274 267 268 287 301 295 324 316 296 328 303 324 320 313 315 313 276 320 330 342 295 226 207 210 214 218 209 204 204 207 209 210 202 209 196 183 196 198 195 219 241
323 320 316 314 316 311 310 305 303 162 202 228 254 255 184 267 60 120 219 270 300 312 294 290 304 278 261 314 296 339 311 306 301 304 288 249 288 314 306 311 308 295 294 280 273 279 281 286 282 281 284 271 269 251 261 277 286 291 284 286 285 293 307 319 333 326 283 278 218 207 209 218 237 224 212 185 192 214 223 217 192 195 180 182 198 227 210
333 330 326 322 319 317 316 323 323 236 158 215 227 243 273 235 297 301 219 276 279 256 295 288 275 277 309 302 304 290 257 284 298 314 290 307 299 287 296 308 317 290 273 274 284 288 277 277 285 291 282 280 276 266 264 260 257 259 267 278 273 274 276 281 360 272 287 300 257 198 196 217 222 243 157 170 194 192 197 222 229 233 200 201 198 212 209
340 339 337 334 326 322 322 316 310 205 178 230 216 254 257 302 274 243 253 271 283 301 288 278 285 289 293 302 309 307 309 308 306 285 286 295 301 310 306 292 285 277 255 291 300 294 275 262 275 271 273 277 272 263 258 255 255 259 260 261 269 271 269 270 246 230 279 293 279 186 207 213 235 253 164 183 187 182 187 176 267 268 247 285 5 1 295
341 341 339 336 333 331 326 324 321 291 196 216 216 245 251 187 189 245 259 258 269 291 294 275 281 289 295 297 296 299 291 298 300 307 292 309 316 308 299 289 286 287 325 315 321 320 284 284 286 284 279 276 272 259 241 239 249 251 254 254 257 259 259 262 247 229 266 268 248 212 208 197 240 62 46 99 149 164 118 47 7 9 297 174 121 137 119
343 343 341 340 340 337 338 339 354 350 225 211 225 235 228 206 223 214 221 249 267 254 277 294 288 281 281 289 312 299 307 306 307 322 316 311 299 291 291 295 301 307 306 294 308 301 306 12 317 312 301 287 280 269 229 231 220 233 244 244 239 246 248 240 267 197 240 228 236 240 253 123 119 59 27 126 146 166 159 105 292 311 324 150 138 160 130
342 343 343 340 338 342 341 339 338 349 339 194 233 237 234 227 230 230 234 218 275 282 251 270 270 298 313 306 305 305 300 305 331 309 295 289 279 300 310 298 296 302 302 278 289 309 212 276 307 314 313 346 299 275 131 239 242 234 241 254 266 240 228 187 220 251 171 275 266 239 195 188 232 228 246 191 154 127 126 109 19 320 354 268 128 123 117
341 342 341 339 336 339 337 337 335 326 309 215 230 229 233 222 211 227 224 233 281 287 231 226 247 290 297 296 299 292 297 313 300 299 302 286 284 297 301 308 308 302 296 239 155 214 256 161 230 222 250 246 312 320 240 260 269 237 239 309 299 258 185 191 211 271 349 284 227 222 172 239 220 177 155 162 140 126 94 75 48 280 269 284 118 104 89
341 341 341 341 342 340 339 342 338 326 270 188 226 218 253 186 204 211 220 222 211 245 297 316 306 289 295 290 293 273 168 263 295 314 305 304 306 303 300 319 308 314 332 278 28 36 300 238 246 271 276 287 270 233 285 14 287 301 332 335 344 1 39 53 30 358 358 328 286 244 214 81 2 342 334 245 136 96 74 93 234 261 306 298 92 94 97
344 342 343 344 344 344 344 346 349 342 323 188 198 233 261 162 204 179 217 220 254 269 248 240 245 254 233 251 275 278 281 270 266 258 253 286 302 300 337 328 333 358 354 21 274 152 230 235 230 228 249 225 258 291 248 233 205 281 317 302 324 330 17 79 86 16 324 326 296 262 48 23 351 342 324 314 286 83 139 181 207 238 251 54 95 88 102
343 343 344 345 344 343 343 343 341 346 353 338 264 255 248 233 208 191 224 240 225 255 171 319 318 283 273 275 262 268 266 287 287 284 288 303 260 318 326 307 22 323 350 339 241 213 228 252 282 278 266 259 226 232 271 142 200 268 286 349 339 339 70 75 66 34 339 298 291 253 146 169 352 339 319 295 218 188 167 221 183 148 131 60 76 90 55
340 341 341 343 342 340 341 338 339 332 338 360 249 245 256 238 211 184 215 245 238 267 265 262 248 260 262 263 278 279 294 283 243 232 231 261 317 332 333 356 289 223 307 340 272 242 249 243 231 233 238 253 261 293 342 239 236 205 269 233 133 276 67 101 94 342 324 333 289 332 347 311 356 335 324 32 73 216 191 135 114 156 112 90 52 62 46
337 337 336 339 338 337 339 338 336 337 334 334 309 288 285 221 238 194 203 229 259 283 282 230 240 243 253 255 251 257 266 266 268 278 259 261 293 329 292 242 318 4 295 28 319 318 332 301 331 270 291 275 309 298 230 244 248 161 281 322 140 266 102 92 104 135 153 299 281 271 276 291 329 355 339 317 315 191 136 118 98 36 75 89 78 37 34
333 332 332 333 332 331 332 331 332 330 334 337 320 245 269 261 259 183 195 194 237 244 265 276 282 272 266 262 262 256 253 254 252 244 262 276 237 232 259 290 290 270 231 181 304 291 186 297 268 266 284 300 271 236 322 44 224 276 258 165 227 340 104 177 142 184 155 185 264 263 299 308 326 324 292 324 351 2 62 98 98 105 54 58 83 70 49
328 327 328 327 326 326 326 328 331 328 325 323 327 211 274 295 284 194 157 248 235 253 262 270 260 263 268 262 251 247 243 236 246 246 234 245 267 246 248 257 270 223 180 204 205 222 242 228 264 307 292 249 261 259 215 236 280 316 302 285 108 41 338 293 115 120 201 218 239 284 308 326 337 341 348 4 10 21 14 46 88 60 78 66 91 90 80
326 325 324 323 322 323 322 322 323 320 321 319 311 254 270 245 262 275 259 244 261 289 276 233 267 266 239 269 274 236 227 235 230 235 216 205 245 262 231 234 249 237 228 219 202 189 200 216 277 252 266 269 297 251 196 201 216 257 227 241 138 137 360 341 99 299 30 21 289 319 330 320 349 348 1 21 18 22 39 22 12 47 54 63 50 72 74
322 321 321 320 319 319 320 320 319 318 319 317 314 274 266 273 236 219 249 290 277 297 299 299 262 258 265 265 272 273 261 250 231 229 224 211 217 230 245 228 198 219 248 227 186 221 210 257 305 277 283 288 277 273 287 228 160 245 192 249 40 143 279 251 91 344 131 218 298 306 297 286 353 15 8 15 4 358 25 44 20 13 61 61 45 45 49
316 314 314 314 314 314 315 316 315 315 315 315 313 287 272 261 247 217 246 260 254 247 275 284 294 289 308 306 284 276 295 291 282 278 236 213 218 228 244 251 252 211 236 181 160 205 207 230 246 262 275 290 277 302 300 255 277 291 199 235 199 203 356 168 251 130 276 294 18 346 302 346 359 14 14 7 12 3 11 41 42 26 45 64 61 47 51
307 306 306 305 305 307 307 310 311 309 310 306 298 265 254 262 231 213 213 228 283 272 227 255 277 289 307 293 287 289 273 259 256 251 259 245 230 223 226 231 238 237 243 237 213 217 194 223 251 262 234 251 274 277 272 287 249 222 292 281 248 127 167 188 63 44 16 50 9 350 10 311 327 360 2 3 9 13 359 29 53 39 32 47 68 56 45
298 304 305 301 300 298 299 301 304 307 304 305 301 274 261 254 244 214 209 204 202 252 299 291 293 292 299 273 267 267 278 278 260 244 233 235 232 234 236 236 230 237 233 227 243 215 197 234 253 252 259 273 277 265 209 241 266 250 197 247 207 150 189 114 135 138 188 174 349 32 26 336 335 342 345 12 16 25 7 356 34 54 39 35 66 73 58
300 302 303 302 300 297 293 294 297 301 304 304 298 290 277 248 247 221 209 189 194 241 249 269 276 274 279 298 308 296 282 267 261 248 234 224 224 224 227 225 225 223 231 226 231 226 206 229 231 257 273 312 287 275 297 252 203 223 211 221 288 256 288 166 170 170 276 279 246 144 89 73 330 352 6 9 18 50 30 0 349 20 60 52 64 61 71
300 303 302 300 297 294 293 290 289 292 300 322 322 305 322 312 301 201 154 155 162 189 275 310 301 281 291 288 284 278 286 277 262 267 267 236 225 221 220 217 223 221 214 218 182 238 205 233 241 243 257 93 263 292 268 300 292 260 128 270 173 281 47 3 76 189 209 237 155 134 117 108 309 21 30 26 24 48 58 27 2 348 15 59 75 69 58
302 306 305 301 295 291 289 288 286 281 279 255 271 305 324 307 255 155 151 150 153 175 261 258 269 299 293 238 241 270 283 297 291 273 259 250 235 235 217 204 213 200 217 225 202 210 151 234 233 231 182 237 312 282 296 318 309 304 273 3 16 26 20 12 303 265 229 170 132 116 102 70 323 4 43 34 14 17 52 29 358 13 6 54 67 75 66
308 308 301 295 289 285 285 284 280 275 252 218 202 187 193 180 189 149 144 134 97 307 268 295 293 258 271 292 275 294 293 281 280 268 242 201 247 245 248 189 206 194 207 198 192 74 238 210 229 268 267 103 291 260 255 266 277 259 314 360 17 348 347 2 331 290 201 148 129 95 82 70 28 24 120 74 55 320 35 63 5 320 7 58 63 64 66
307 302 295 288 286 289 290 283 274 264 233 241 248 260 267 271 269 263 255 266 265 221 201 239 250 296 272 272 311 305 312 332 314 10 326 307 276 265 256 214 186 163 172 121 228 196 189 264 319 303 203 100 248 260 281 257 244 299 317 346 13 335 344 324 303 243 146 107 86 128 141 109 87 52 56 62 57 24 32 50 27 291 1 52 47 42 45
307 304 297 289 280 278 278 273 264 256 257 252 260 245 244 241 247 253 244 162 234 215 206 243 271 262 272 320 295 291 26 310 285 5 317 279 299 266 243 202 176 196 28 229 360 359 85 282 244 270 282 227 224 247 261 260 295 318 348 25 353 334 354 5 358 145 106 110 116 100 101 98 81 31 39 46 49 26 22 31 309 41 33 41 47 42 45
313 309 302 293 278 266 271 270 252 218 228 233 246 256 240 224 214 219 179 155 176 214 221 230 234 275 295 273 279 275 310 311 305 320 238 273 306 94 346 50 4 195 355 102 139 238 271 253 170 300 271 297 272 243 246 293 313 21 18 16 359 334 13 21 358 55 95 94 87 89 105 119 114 95 68 40 41 22 25 17 2 59 64 35 32 39 37
316 311 307 296 288 278 273 225 186 190 217 229 231 232 221 212 193 188 169 186 185 238 236 262 229 247 279 301 314 298 355 284 229 267 236 270 339 34 76 75 57 345 196 249 248 173 230 254 134 260 330 286 255 257 298 330 327 85 50 41 322 7 360 284 292 87 76 94 97 93 76 57 79 95 89 81 90 120 61 65 54 62 69 47 33 32 35
312 315 313 306 308 93 206 215 178 196 228 206 101 97 99 107 78 76 172 238 212 165 246 270 255 246 243 279 294 269 357 304 356 309 339 13 15 309 23 55 33 274 339 279 217 251 224 38 303 288 264 250 263 304 297 297 229 75 65 33 358 26 40 21 40 98 101 92 87 88 92 85 54 50 50 21 304 281 95 86 76 80 84 77 55 45 33
312 320 15 28 36 351 285 262 218 245 184 121 132 98 28 136 202 212 197 223 200 179 210 209 248 271 239 251 250 270 321 282 43 310 311 192 127 81 338 106 234 360 252 282 261 126 123 97 238 245 261 253 251 230 253 317 46 58 60 63 71 71 57 39 45 83 97 88 79 83 84 79 70 41 39 33 9 153 152 133 81 82 90 93 78 72 55
310 312 18 181 69 286 262 283 332 356 49 126 87 303 248 188 248 254 232 223 207 221 165 205 244 202 213 239 260 266 227 298 320 294 302 295 85 55 171 156 203 169 251 254 264 131 234 293 320 5 308 299 327 41 5 344 36 35 31 32 59 76 80 74 62 67 76 80 92 79 95 110 108 103 87 68 45 43 33 62 76 55 67 71 75 78 77
6 1 346 323 337 281 288 281 357 337 264 234 206 147 275 182 121 274 212 252 261 217 150 242 221 224 200 217 242 300 165 202 240 274 246 19 105 191 34 215 103 130 219 194 235 184 113 148 323 333 330 349 38 23 13 8 41 23 26 28 40 35 25 38 94 77 81 83 72 87 99 116 131 132 133 139 97 57 52 53 63 63 39 13 148 83 149
20 332 339 299 301 308 300 319 316 199 224 249 229 229 220 286 221 241 282 276 266 259 181 248 247 271 230 221 198 249 230 220 259 213 279 253 95 159 112 191 154 233 222 199 347 92 125 76 344 278 126 271 318 354 25 28 30 14 34 50 52 45 28 346 283 230 147 106 124 139 166 174 178 152 108 85 77 79 72 63 50 48 48 45 46 36 9
270 180 268 297 282 282 300 294 131 319 233 210 41 289 216 229 252 320 200 198 288 304 266 187 253 271 281 183 200 202 250 191 243 232 150 264 177 195 180 207 97 263 39 195 161 257 69 42 22 359 341 345 8 41 64 46 21 34 34 30 21 27 356 27 74 55 53 112 128 96 73 61 61 65 74 78 72 65 61 60 53 43 42 39 39 35 38
287 279 208 230 268 282 267 350 307 54 19 347 357 319 318 333 343 331 307 234 307 317 268 236 257 263 259 227 254 199 250 125 206 205 176 235 103 295 353 353 61 43 46 205 45 22 35 52 5 350 339 48 42 40 43 48 47 46 40 14 17 332 337 8 60 71 57 46 69 86 65 57 68 60 54 59 68 63 57 60 66 61 49 49 47 45 43
241 210 332 319 9 286 49 349 285 358 4 55 9 329 333 327 331 348 310 304 297 259 211 286 319 351 321 215 282 288 217 227 226 222 221 232 180 193 154 63 94 222 229 64 37 29 58 134 10 33 33 39 47 51 45 35 30 50 51 44 52 47 53 62 51 34 45 69 42 49 101 98 96 98 87 68 63 67 63 53 48 58 59 59 56 52 48
37 360 20 356 360 283 45 349 334 79 4 326 331 289 312 313 305 313 281 286 290 285 299 261 244 283 283 317 296 252 327 315 220 253 331 23 23 354 53 11 325 40 42 44 33 319 293 70 46 36 34 40 38 40 43 49 27 38 54 52 50 47 47 55 72 85 50 65 96 82 74 71 72 68 59 54 57 60 66 59 43 55 57 63 61 55 41
58 338 31 28 327 322 84 236 306 353 330 175 310 291 293 293 281 271 269 266 285 297 303 296 213 206 281 269 317 316 337 328 342 3 352 309 40 29 7 298 11 47 36 35 37 41 39 35 40 39 38 41 40 31 19 21 30 52 75 74 68 63 46 59 86 96 117 116 75 68 68 64 71 77 74 67 64 58 52 49 47 56 59 64 61 58 47
359 340 92 122 28 293 82 24 4 291 264 294 284 293 287 288 281 261 255 249 272 282 291 291 283 218 195 309 348 351 300 253 360 323 11 34 29 338 330 27 26 10 23 24 24 23 31 43 39 36 32 26 36 48 47 41 50 67 67 69 66 64 91 316 19 19 22 59 61 61 59 56 52 49 54 54 45 42 46 48 49 51 60 66 63 60 54
330 258 82 36 313 316 5 336 167 261 259 250 279 286 278 262 292 328 313 271 259 296 301 333 344 351 32 237 101 24 358 333 26 359 41 147 224 48 30 36 30 5 14 38 57 55 49 39 33 25 27 32 35 44 53 66 83 106 210 197 141 134 102 90 89 78 60 63 61 59 52 46 43 45 44 46 41 27 23 34 49 59 64 62 58 55 57
192 70 101 223 223 283 258 267 29 346 337 319 287 283 317 338 343 335 319 312 318 302 272 161 293 46 351 319 37 3 27 339 32 353 347 4 39 20 23 29 358 35 19 358 45 61 54 27 15 25 28 34 35 42 42 42 51 66 78 83 73 67 56 53 48 47 45 45 43 45 43 41 41 36 34 31 34 24 22 23 22 32 53 62 54 48 46
66 347 353 11 352 324 251 250 9 356 342 338 338 341 345 357 354 355 344 341 317 314 344 18 327 83 337 17 13 12 35 354 38 339 25 34 23 13 19 57 38 34 29 23 31 30 26 21 25 37 26 31 28 30 33 32 34 41 41 43 49 54 59 67 67 64 62 63 61 60 58 56 52 50 48 49 46 45 41 40 43 43 41 46 60 58 55
301 124 259 192 95 347 347 14 6 359 344 349 347 354 355 2 356 350 343 338 329 26 37 26 341 29 6 16 19 36 24 337 35 26 24 23 9 29 32 48 36 30 36 22 28 31 29 23 29 34 31 28 25 36 24 22 37 37 32 37 43 54 57 57 59 60 57 55 53 52 49 49 51 53 47 44 44 44 46 44 49 55 53 51 49 54 55
13 18 351 335 4 11 16 352 341 1 322 331 352 354 358 11 351 350 342 348 24 39 19 343 18 11 33 35 11 11 343 30 35 355 40 35 346 42 46 43 48 15 19 25 20 16 24 31 36 34 21 19 21 11 1 11 38 42 31 36 47 54 56 56 56 54 53 49 46 45 41 36 39 43 45 46 42 41 41 42 42 51 54 52 51 54 54